Location: Dattensoll
(49.9928°N, 9.8954°E)
Time: 02:18:35
(UTC+00:00)

ISS - Pass Details

Date: 25 January 2026
Orbit: 413 x 429 km, 51.6° (Epoch: 10 February)

Event Time Altitude Azimuth Distance (km) Brightness Sun altitude
Rises 17:43:39 0° 287° (WNW) 2,366 1.2 -16.0°
Reaches altitude 10° 17:45:45 10° 285° (WNW) 1,503 0.1 -16.4°
Maximum altitude 17:49:06 67° 202° (SSW) 459 -3.5 -16.9°
Enters shadow 17:50:20 35° 130° (SE) 697 -3.0 -17.1°
